Weather Roundup
Issued by NWS Springfield, MO

Home | Current Version | Previous Version | Text Only | Print | Product List | Glossary On
Versions: 1 2 3 4 5 6 7 8 9 10 11 12 13 14 15 16 17 18 19 20 21 22 23 24 25 26 27 28 29 30 31 32 33 34 35 36 37 38 39 40 41 42 43 44 45 46 47 48 49 50
573
NZUS99 KSGF 240857
HRRSGF

HOURLY WEATHER
NATIONAL WEATHER SERVICE SPRINGFIELD MO
400 AM CDT SUN JUL 24 2016

......SGF CWA......

CITY           SKY/WX    TMP DP  RH WIND       PRES   REMARKS
SPRINGFIELD    CLEAR     78  72  81 SE7       29.95S
JOPLIN         PTCLDY    80  72  76 S8        29.92S
WEST PLAINS    PTCLDY    74  69  85 CALM      29.98S

......SURROUNDING SGF CWA......

CITY           SKY/WX    TMP DP  RH WIND       PRES   REMARKS
CHANUTE        PTCLDY    79  71  76 S8        29.89S
PARSONS        CLEAR     79  72  79 S6        29.91S
COFFEYVILLE    CLEAR     78  72  81 S5        29.90S
EMPORIA        PTCLDY    77  70  79 S9        29.87S
HARRISON AR    PTCLDY    72  71  97 CALM      29.97S

......KANSAS AND MISSOURI......

CITY           SKY/WX    TMP DP  RH WIND       PRES   REMARKS
KANSAS CTY INT PTCLDY    78  71  79 S8        29.87S
SEDALIA        CLOUDY    80  75  84 S8        29.92R
ST JOSEPH      PTCLDY    81  71  71 S8        29.84F
ST LOUIS       CLEAR     83  74  74 S6        29.93S
WICHITA        PTCLDY    78  68  71 S6        29.88F
TOPEKA         CLOUDY    79  71  76 N3        29.86R
OLATHE         CLEAR     78  71  79 S5        29.89R

......TENNESSEE......

CITY           SKY/WX    TMP DP  RH WIND       PRES   REMARKS
MEMPHIS        CLOUDY    81  75  83 S10       29.94S
NASHVILLE      MOCLDY    74  69  85 SE3       29.99S

......ARKANSAS.......

CITY           SKY/WX    TMP DP  RH WIND       PRES   REMARKS
FAYETTEVILLE   CLEAR     73  73 100 SE3       29.97S
FT SMITH       PTCLDY    78  72  81 E3        29.93R
LITTLE ROCK    NOT AVBL

......OKLAHOMA.......

CITY           SKY/WX    TMP DP  RH WIND       PRES   REMARKS
TULSA          CLEAR     84  71  65 S12       29.90R
PONCA CITY     CLOUDY    82  70  66 S6        29.89R
MCALESTER      CLEAR     76  70  82 S3        29.94S
OKLAHOMA CITY  PTCLDY    76  71  85 S8        29.92S

......IOWA............

CITY           SKY/WX    TMP DP  RH WIND       PRES   REMARKS
DES MOINES     NOT AVBL
QUAD CITIES    CLOUDY    82  75  79 S12       29.86F

......ILLINOIS........

CITY           SKY/WX    TMP DP  RH WIND       PRES   REMARKS
QUINCY         PTCLDY    79  75  87 S7        29.90S
CHICAGO        CLOUDY    71  70  96 S9        29.90F




USA.gov is the U.S. government's official web portal to all federal, state and local government web resources and services.